CW3467 Weather Reports


time (UTC)temp
C
wind
direction
speed
KPH
gust
KPH
rain 1hr
cm
rain 24hr
cm
rain mn
cm
humidity
%
barometer
mb
20260507213505 10 18 1.6 9.7 0.53 1.35 1.35 100 1015.5
20260507213026 10 271 1.6 9.7 0.71 1.32 1.32 100 1015.6
20260507212505 10 249 0.0 4.8 0.97 1.30 1.30 100 1015.4
20260507212005 10 246 0.0 4.8 0.99 1.27 1.27 100 1015.5
20260507211505 10 205 0.0 1.6 1.17 1.24 1.24 100 1015.4
20260507211005 10 226 0.0 3.2 1.24 1.24 1.24 100 1015.3
20260507210505 10 230 0.0 3.2 1.22 1.22 1.22 100 1015.2
20260507210005 10 243 1.6 3.2 1.19 1.19 1.19 100 1015.1
20260507205505 9 247 1.6 3.2 1.17 1.17 1.17 100 1014.9
20260507205005 10 245 1.6 4.8 1.14 1.14 1.14 100 1014.9
20260507204505 9 250 1.6 4.8 1.09 1.09 1.09 97 1014.8
20260507204005 9 253 3.2 6.4 0.97 0.97 0.97 97 1014.7
20260507203505 9 249 3.2 6.4 0.81 0.81 0.81 97 1014.8
20260507203005 9 256 4.8 11.3 0.61 0.61 0.61 96 1014.5
20260507202505 10 256 4.8 14.5 0.33 0.33 0.36 95 1014.6
20260507202005 10 255 6.4 14.5 0.28 0.28 0.28 92 1014.1
20260507201505 11 260 4.8 11.3 0.08 0.08 0.08 87 1014.1
20260507201005 13 291 6.4 14.5 0.00 0.00 0.00 71 1013.6
20260507200526 13 298 8.0 14.5 0.00 0.00 0.00 65 1013.5
20260507200005 14 284 4.8 14.5 0.00 0.00 0.00 66 1013.2
20260507195505 15 255 3.2 9.7 0.00 0.00 0.00 68 1013.4
20260507195005 15 253 3.2 6.4 0.00 0.00 0.00 68 1013.1
20260507194505 15 252 3.2 11.3 0.00 0.00 0.00 70 1013.1
20260507194005 15 270 4.8 11.3 0.00 0.00 0.00 70 1013.2
20260507193505 15 317 6.4 20.9 0.00 0.00 0.00 70 1013.0
20260507193005 15 320 9.7 20.9 0.00 0.00 0.00 70 1013.1
20260507192505 15 298 8.0 14.5 0.00 0.00 0.00 71 1012.7
20260507192005 15 302 8.0 20.9 0.00 0.00 0.00 70 1012.7
20260507191526 15 318 6.4 20.9 0.00 0.00 0.00 68 1012.6
20260507191005 16 311 6.4 17.7 0.00 0.00 0.00 66 1012.4
20260507190505 16 284 4.8 17.7 0.00 0.00 0.00 63 1012.5
20260507190006 16 279 4.8 12.9 0.00 0.00 0.00 62 1012.2
20260507185525 16 282 4.8 11.3 0.00 0.00 0.00 62 1012.3
20260507185004 16 272 3.2 9.7 0.00 0.00 0.00 63 1012.2
20260507184505 16 265 3.2 9.7 0.00 0.00 0.00 62 1012.2
20260507184004 16 258 1.6 3.2 0.00 0.00 0.00 60 1012.1
20260507183505 16 203 0.0 3.2 0.00 0.00 0.00 57 1011.9
20260507183005 16 133 1.6 6.4 0.00 0.00 0.00 54 1012.0
20260507182505 17 96 1.6 6.4 0.00 0.00 0.00 51 1011.9
20260507182026 17 141 1.6 4.8 0.00 0.00 0.00 53 1011.9
20260507181525 17 59 1.6 6.4 0.00 0.00 0.00 53 1011.6
20260507181005 17 308 1.6 11.3 0.00 0.00 0.00 53 1011.7
20260507180505 17 311 4.8 17.7 0.00 0.00 0.00 55 1011.7
20260507180026 17 315 6.4 17.7 0.00 0.00 0.00 55 1011.6
20260507175505 18 291 4.8 12.9 0.00 0.00 0.00 59 1011.6
20260507175004 18 279 3.2 9.7 0.00 0.00 0.00 61 1011.4
20260507174505 18 261 1.6 9.7 0.00 0.00 0.00 59 1011.7
20260507174004 18 277 3.2 12.9 0.00 0.00 0.00 56 1011.4
20260507173504 18 279 3.2 12.9 0.00 0.00 0.00 55 1011.4
20260507173005 18 253 1.6 6.4 0.00 0.00 0.00 54 1011.4
20260507172505 18 235 1.6 6.4 0.00 0.00 0.00 52 1011.3
20260507172005 19 65 1.6 6.4 0.00 0.00 0.00 53 1011.2
20260507171505 18 43 1.6 6.4 0.00 0.00 0.00 50 1011.2
20260507171005 19 119 1.6 6.4 0.00 0.00 0.00 50 1011.0
20260507170505 19 206 1.6 6.4 0.00 0.00 0.00 50 1010.9
20260507170005 18 232 0.0 3.2 0.00 0.00 0.00 53 1010.8
20260507165505 18 251 1.6 6.4 0.00 0.00 0.00 50 1011.0
20260507165004 18 263 1.6 6.4 0.00 0.00 0.00 51 1010.8
20260507164504 18 91 1.6 6.4 0.00 0.00 0.00 54 1010.8
20260507164004 18 109 1.6 6.4 0.00 0.00 0.00 53 1010.8
20260507163504 18 66 1.6 6.4 0.00 0.00 0.00 51 1010.9
20260507163005 18 57 1.6 6.4 0.00 0.00 0.00 50 1010.9
20260507162525 18 64 1.6 6.4 0.00 0.00 0.00 51 1010.6
20260507162005 19 60 1.6 6.4 0.00 0.00 0.00 52 1010.8
20260507161504 18 65 0.0 3.2 0.00 0.00 0.00 54 1010.7
20260507161004 18 59 1.6 4.8 0.00 0.00 0.00 51 1010.6
20260507160514 18 52 1.6 4.8 0.00 0.00 0.00 51 1010.8
20260507160008 18 52 1.6 6.4 0.00 0.00 0.00 53 1010.6
20260507155505 18 55 1.6 6.4 0.00 0.00 0.00 51 1010.8
20260507155026 18 73 1.6 6.4 0.00 0.00 0.00 50 1010.8
20260507154505 19 66 1.6 6.4 0.00 0.00 0.00 47 1010.5
20260507154005 19 47 1.6 6.4 0.00 0.00 0.00 48 1010.6
20260507153505 19 59 1.6 4.8 0.00 0.00 0.00 47 1010.5
20260507153004 19 59 1.6 6.4 0.00 0.00 0.00 45 1010.7
20260507152504 20 29 1.6 6.4 0.00 0.00 0.00 44 1010.7
20260507152025 21 314 1.6 6.4 0.00 0.00 0.00 44 1010.6
20260507151505 21 359 3.2 12.9 0.00 0.00 0.00 44 1010.9
20260507151025 20 37 3.2 12.9 0.00 0.00 0.00 41 1011.0
20260507150504 21 53 3.2 12.9 0.00 0.00 0.00 42 1011.0
20260507150005 20 50 3.2 12.9 0.00 0.00 0.00 44 1011.0
20260507145504 20 43 3.2 11.3 0.00 0.00 0.00 43 1011.2
20260507145005 20 32 3.2 11.3 0.00 0.00 0.00 44 1011.0
20260507144505 21 31 3.2 14.5 0.00 0.00 0.00 46 1011.2
20260507144005 20 41 4.8 14.5 0.00 0.00 0.00 43 1011.2
20260507143504 20 50 3.2 12.9 0.00 0.00 0.00 44 1011.4
20260507143005 20 240 1.6 9.7 0.00 0.00 0.00 46 1011.4
20260507142525 21 11 3.2 11.3 0.00 0.00 0.00 45 1011.4
20260507142004 20 31 3.2 11.3 0.00 0.00 0.00 46 1011.3
20260507141526 20 357 3.2 12.9 0.00 0.00 0.00 43 1011.6
20260507141006 20 314 4.8 12.9 0.00 0.00 0.00 46 1011.6
20260507140504 20 312 4.8 12.9 0.00 0.00 0.00 46 1011.4
20260507140006 20 27 4.8 16.1 0.00 0.00 0.00 46 1011.6
20260507135504 20 31 4.8 16.1 0.00 0.00 0.00 49 1011.4
20260507135004 20 11 4.8 17.7 0.00 0.00 0.00 46 1011.6
20260507134504 20 351 4.8 17.7 0.00 0.00 0.00 49 1011.8
20260507134004 21 31 4.8 16.1 0.00 0.00 0.00 48 1011.8
20260507133504 20 50 4.8 17.7 0.00 0.00 0.00 49 1012.0
20260507133004 20 48 4.8 17.7 0.00 0.00 0.00 49 1012.0
20260507132504 20 48 3.2 14.5 0.00 0.00 0.00 50 1011.9
20260507132004 20 45 4.8 14.5 0.00 0.00 0.00 46 1011.9
20260507131504 20 45 4.8 12.9 0.00 0.00 0.00 46 1012.0
20260507131004 20 40 3.2 12.9 0.00 0.00 0.00 45 1012.2
20260507130505 20 3 3.2 12.9 0.00 0.00 0.00 49 1012.1
20260507130005 20 295 3.2 9.7 0.00 0.00 0.00 46 1012.2
20260507125505 20 284 3.2 11.3 0.00 0.00 0.00 45 1012.3
20260507125004 20 310 4.8 12.9 0.00 0.00 0.00 45 1012.2
20260507124504 19 308 4.8 12.9 0.00 0.00 0.00 44 1012.4
20260507124004 20 298 4.8 14.5 0.00 0.00 0.00 49 1012.4
20260507123504 19 298 3.2 14.5 0.00 0.00 0.00 49 1012.3
20260507123005 20 301 1.6 12.9 0.00 0.00 0.00 45 1012.4
20260507122504 20 349 3.2 14.5 0.00 0.00 0.00 49 1012.5
20260507122005 20 17 3.2 14.5 0.00 0.00 0.00 48 1012.4
20260507121504 19 321 3.2 11.3 0.00 0.00 0.00 51 1012.6
20260507121004 20 300 3.2 11.3 0.00 0.00 0.00 50 1012.7
20260507120525 20 308 3.2 11.3 0.00 0.00 0.00 49 1012.9
20260507120005 18 291 3.2 12.9 0.00 0.00 0.00 51 1012.7
20260507115504 20 279 3.2 12.9 0.00 0.00 0.00 47 1012.9
20260507115004 20 267 1.6 6.4 0.00 0.00 0.00 52 1012.9
20260507114504 20 355 1.6 9.7 0.00 0.00 0.00 52 1013.1
20260507114004 18 50 3.2 9.7 0.00 0.00 0.00 51 1013.1
20260507113504 19 345 3.2 11.3 0.00 0.00 0.00 52 1013.2
20260507113005 20 284 3.2 11.3 0.00 0.00 0.00 52 1013.4
20260507112504 19 276 3.2 12.9 0.00 0.00 0.00 53 1013.5
20260507112004 18 352 3.2 12.9 0.00 0.00 0.00 54 1013.4
20260507111506 18 50 3.2 11.3 0.00 0.00 0.00 50 1013.6
20260507111004 17 52 3.2 11.3 0.00 0.00 0.00 53 1013.4
20260507110525 18 340 3.2 12.9 0.00 0.00 0.00 54 1013.5
20260507110005 18 284 3.2 12.9 0.00 0.00 0.00 53 1013.8
20260507105504 19 274 1.6 9.7 0.00 0.00 0.00 50 1013.8
20260507105004 18 277 1.6 9.7 0.00 0.00 0.00 55 1013.8
20260507104505 18 279 3.2 6.4 0.00 0.00 0.00 53 1013.8
20260507104004 18 279 3.2 14.5 0.00 0.00 0.00 54 1014.0
20260507103525 17 269 3.2 14.5 0.00 0.00 0.00 59 1014.0
20260507103004 18 277 3.2 9.7 0.00 0.00 0.00 56 1013.8
20260507102504 18 291 1.6 9.7 0.00 0.00 0.00 55 1013.9
20260507102006 17 267 1.6 9.7 0.00 0.00 0.00 54 1014.0
20260507101504 17 275 3.2 9.7 0.00 0.00 0.00 56 1014.1
20260507101004 17 279 1.6 6.4 0.00 0.00 0.00 53 1014.2
20260507100504 17 262 1.6 6.4 0.00 0.00 0.00 60 1014.1
20260507100005 17 271 1.6 6.4 0.00 0.00 0.00 54 1014.1
20260507095504 16 86 1.6 6.4 0.00 0.00 0.00 57 1014.2
20260507095004 16 238 1.6 4.8 0.00 0.00 0.00 62 1014.3
20260507094504 16 196 1.6 3.2 0.00 0.00 0.00 63 1014.5
20260507094004 16 79 1.6 4.8 0.00 0.00 0.00 66 1014.3
20260507093525 15 43 1.6 4.8 0.00 0.00 0.00 66 1014.7
20260507093004 15 294 1.6 4.8 0.00 0.00 0.00 67 1014.6
20260507092525 16 273 1.6 4.8 0.00 0.00 0.00 67 1014.7
20260507092004 16 266 1.6 4.8 0.00 0.00 0.00 65 1014.8
20260507091504 15 288 1.6 4.8 0.00 0.00 0.00 69 1014.5
20260507091004 15 327 1.6 6.4 0.00 0.00 0.00 67 1014.5
20260507090504 15 305 1.6 6.4 0.00 0.00 0.00 67 1014.5
20260507090005 15 350 1.6 6.4 0.00 0.00 0.00 66 1014.6
20260507085504 14 40 1.6 4.8 0.00 0.00 0.00 70 1014.7
20260507085004 15 252 1.6 3.2 0.00 0.00 0.00 68 1014.7
20260507084504 14 257 1.6 3.2 0.00 0.00 0.00 70 1014.6
20260507084004 14 256 1.6 3.2 0.00 0.00 0.00 71 1014.7
20260507083504 13 253 1.6 3.2 0.00 0.00 0.00 71 1014.6
20260507083025 13 252 1.6 3.2 0.00 0.00 0.00 73 1014.8
20260507082525 13 266 1.6 4.8 0.00 0.00 0.00 75 1014.6
20260507082004 13 273 1.6 6.4 0.00 0.00 0.00 76 1014.6
20260507081504 12 28 1.6 6.4 0.00 0.00 0.00 79 1014.5
20260507081004 12 292 1.6 4.8 0.00 0.00 0.00 78 1014.5
20260507080504 12 258 1.6 4.8 0.00 0.00 0.00 79 1014.7
20260507080025 12 251 1.6 3.2 0.00 0.00 0.00 79 1014.7
20260507075504 12 255 1.6 3.2 0.00 0.00 0.00 79 1014.9
20260507075025 12 248 0.0 3.2 0.00 0.00 0.00 80 1014.7
20260507074504 11 251 1.6 3.2 0.00 0.00 0.00 80 1014.9
20260507074004 11 254 1.6 3.2 0.00 0.00 0.00 80 1014.7
20260507073504 11 251 1.6 3.2 0.00 0.00 0.00 80 1014.8
20260507073025 11 242 0.0 3.2 0.00 0.00 0.00 80 1015.0
20260507072504 12 235 0.0 1.6 0.00 0.00 0.00 78 1014.7
20260507072004 10 247 0.0 3.2 0.00 0.00 0.00 82 1014.8
20260507071504 10 243 0.0 3.2 0.00 0.00 0.00 84 1015.1
20260507071004 11 236 0.0 3.2 0.00 0.00 0.00 82 1015.1
20260507070504 10 240 0.0 3.2 0.00 0.00 0.00 83 1015.1
20260507070009 10 239 0.0 1.6 0.00 0.00 0.00 83 1014.8
20260507065504 10 239 0.0 1.6 0.00 0.00 0.00 82 1015.0
20260507065004 9 238 0.0 1.6 0.00 0.00 0.00 85 1014.7
20260507064504 9 235 0.0 1.6 0.00 0.00 0.00 88 1014.7
20260507064025 8 240 0.0 1.6 0.00 0.00 0.00 89 1015.0
20260507063504 8 244 0.0 1.6 0.00 0.00 0.00 90 1014.8
20260507063004 7 241 0.0 1.6 0.00 0.00 0.00 92 1014.7
20260507062504 7 243 0.0 1.6 0.00 0.00 0.00 93 1014.8
20260507062025 7 244 0.0 1.6 0.00 0.00 0.00 93 1014.8
20260507061504 7 237 0.0 1.6 0.00 0.00 0.00 93 1014.9
20260507061004 7 235 0.0 1.6 0.00 0.00 0.00 94 1014.7
20260507060505 6 231 0.0 1.6 0.00 0.00 0.00 93 1014.6
20260507060004 6 0 0.0 0.0 0.00 0.00 0.00 93 1014.3
20260507055504 6 220 0.0 1.6 0.00 0.00 0.00 93 1014.3
20260507055004 6 224 0.0 3.2 0.00 0.00 0.00 93 1014.3
20260507054504 6 224 0.0 3.2 0.00 0.00 0.00 93 1014.3
20260507054025 6 225 0.0 1.6 0.00 0.00 0.00 94 1014.5
20260507053525 6 236 0.0 1.6 0.00 0.00 0.00 94 1014.6
20260507053005 6 238 0.0 1.6 0.00 0.00 0.00 94 1014.3
20260507052504 6 234 0.0 1.6 0.00 0.00 0.00 93 1014.2
20260507052004 6 226 0.0 1.6 0.00 0.00 0.00 93 1014.5
20260507051525 6 225 0.0 1.6 0.00 0.00 0.00 93 1014.1
20260507051004 6 222 0.0 3.2 0.00 0.00 0.00 92 1014.2
20260507050504 6 221 0.0 3.2 0.00 0.00 0.00 92 1014.2
20260507050025 6 222 0.0 1.6 0.00 0.00 0.00 93 1014.3
20260507045504 6 223 0.0 1.6 0.00 0.00 0.00 92 1014.1
20260507045004 6 222 1.6 1.6 0.00 0.00 0.00 92 1014.1
20260507044525 6 222 1.6 1.6 0.00 0.00 0.00 92 1013.9
20260507044025 6 224 0.0 1.6 0.00 0.00 0.00 92 1013.9
20260507043504 6 225 0.0 1.6 0.00 0.00 0.00 92 1014.1
20260507043004 7 224 0.0 1.6 0.00 0.00 0.00 92 1014.0
20260507042504 7 225 0.0 1.6 0.00 0.00 0.00 92 1013.9
20260507042004 7 225 0.0 1.6 0.00 0.00 0.00 92 1014.0
20260507041504 7 223 0.0 1.6 0.00 0.00 0.00 91 1013.9
20260507041004 7 222 1.6 3.2 0.00 0.00 0.00 91 1014.0
20260507040504 7 222 1.6 3.2 0.00 0.00 0.00 91 1013.9
20260507040025 7 222 0.0 3.2 0.00 0.00 0.00 92 1013.9
20260507035504 7 223 0.0 1.6 0.00 0.00 0.00 91 1013.9
20260507035004 7 224 1.6 1.6 0.00 0.00 0.00 92 1013.8
20260507034504 7 225 1.6 1.6 0.00 0.00 0.00 92 1014.0
20260507034004 7 223 1.6 1.6 0.00 0.00 0.00 92 1013.8
20260507033504 7 223 1.6 1.6 0.00 0.00 0.00 91 1014.2
20260507033025 7 225 0.0 1.6 0.00 0.00 0.00 92 1014.0
20260507032504 7 221 0.0 1.6 0.00 0.00 0.00 90 1013.9
20260507032025 7 223 0.0 1.6 0.00 0.00 0.00 90 1014.0
20260507031504 7 224 0.0 1.6 0.00 0.00 0.00 91 1014.1
20260507031004 7 221 0.0 1.6 0.00 0.00 0.00 91 1014.0
20260507030504 7 0 0.0 0.0 0.00 0.00 0.00 91 1014.1
20260507030025 7 0 0.0 0.0 0.00 0.00 0.00 91 1014.0
20260507025504 7 223 0.0 3.2 0.00 0.00 0.00 90 1014.2
20260507025004 7 223 0.0 3.2 0.00 0.00 0.00 91 1014.2
20260507024504 7 224 0.0 1.6 0.00 0.00 0.00 91 1014.0
20260507024004 7 225 0.0 1.6 0.00 0.00 0.00 92 1014.0
20260507023504 7 223 0.0 1.6 0.00 0.00 0.00 91 1013.9
20260507023004 7 221 0.0 1.6 0.00 0.00 0.00 91 1014.1
20260507022504 8 221 1.6 1.6 0.00 0.00 0.00 90 1014.1
20260507022025 7 222 0.0 1.6 0.00 0.00 0.00 90 1014.0
20260507021504 7 224 0.0 1.6 0.00 0.00 0.00 90 1013.9
20260507021004 7 230 0.0 1.6 0.00 0.00 0.00 90 1013.9
20260507020504 8 230 0.0 1.6 0.00 0.00 0.00 90 1013.9
20260507020025 8 232 0.0 1.6 0.00 0.00 0.00 89 1013.9
20260507015504 8 239 0.0 1.6 0.00 0.00 0.00 89 1013.9
20260507015025 8 235 0.0 1.6 0.00 0.00 0.00 89 1013.7
20260507014504 8 224 0.0 3.2 0.00 0.00 0.00 89 1013.8
20260507014004 8 223 1.6 3.2 0.00 0.00 0.00 89 1013.8
20260507013525 8 224 1.6 1.6 0.00 0.00 0.00 89 1013.8
20260507013004 8 225 0.0 1.6 0.00 0.00 0.00 89 1013.8
20260507012504 8 225 1.6 3.2 0.00 0.00 0.00 89 1013.9
20260507012004 8 225 1.6 3.2 0.00 0.00 0.00 88 1014.1
20260507011525 8 224 0.0 1.6 0.00 0.00 0.00 88 1014.1
20260507011004 8 224 1.6 3.2 0.00 0.00 0.00 88 1014.2
20260507010504 8 221 1.6 3.2 0.00 0.00 0.00 89 1014.1
20260507010005 8 220 1.6 3.2 0.00 0.00 0.00 89 1014.2
20260507005505 8 223 1.6 3.2 0.00 0.00 0.00 89 1013.9
20260507005005 8 226 1.6 3.2 0.00 0.00 0.00 89 1014.1
20260507004505 8 225 1.6 3.2 0.00 0.00 0.00 88 1014.1
20260507004005 8 219 0.0 3.2 0.00 0.00 0.00 87 1014.5
20260507003505 8 220 0.0 1.6 0.00 0.00 0.00 87 1014.1
20260507003005 8 223 0.0 1.6 0.00 0.00 0.00 87 1014.3
20260507002505 8 225 0.0 1.6 0.00 0.00 0.00 88 1014.2
20260507002005 8 223 0.0 1.6 0.00 0.00 0.00 88 1014.1
20260507001526 8 223 0.0 1.6 0.00 0.00 0.00 88 1014.1
20260507001005 8 225 0.0 1.6 0.00 0.00 0.00 88 1014.3
20260507000505 9 223 0.0 1.6 0.00 0.00 0.00 87 1014.0
20260507000005 9 224 0.0 1.6 0.00 0.00 0.00 88 1014.1
20260506235505 9 227 0.0 1.6 0.00 0.00 0.00 88 1014.2
20260506235004 9 228 0.0 1.6 0.00 0.00 0.00 88 1014.1
20260506234505 9 0 0.0 0.0 0.00 0.00 0.00 87 1014.2
20260506234004 10 0 0.0 0.0 0.00 0.00 0.00 86 1013.9
20260506233505 9 0 0.0 0.0 0.00 0.00 0.00 86 1014.0
20260506233005 10 247 0.0 1.6 0.00 0.00 0.00 86 1014.0
20260506232526 10 247 0.0 1.6 0.00 0.00 0.00 86 1014.1
20260506232004 10 0 0.0 0.0 0.00 0.00 0.00 87 1014.0
20260506231505 10 0 0.0 0.0 0.00 0.00 0.00 87 1013.8
20260506231005 10 270 1.6 3.2 0.00 0.00 0.00 87 1013.9
20260506230504 10 261 1.6 3.2 0.00 0.00 0.00 86 1013.9
20260506230005 10 248 0.0 3.2 0.00 0.00 0.00 84 1013.9
20260506225505 10 187 0.0 1.6 0.00 0.00 0.00 84 1013.7
20260506225005 10 197 0.0 1.6 0.00 0.00 0.00 82 1013.8
20260506224505 10 222 0.0 1.6 0.00 0.00 0.00 83 1013.5
20260506224005 10 230 0.0 1.6 0.00 0.00 0.00 84 1013.8
20260506223505 10 228 0.0 1.6 0.00 0.00 0.00 84 1013.7
20260506223005 10 227 0.0 1.6 0.00 0.00 0.00 84 1013.6
20260506222504 10 225 1.6 3.2 0.00 0.00 0.00 83 1013.6
20260506222025 10 231 1.6 3.2 0.00 0.00 0.00 83 1013.7
20260506221505 10 255 0.0 3.2 0.00 0.00 0.00 83 1013.5
20260506221005 10 236 0.0 1.6 0.00 0.00 0.00 82 1013.6
20260506220525 10 230 0.0 3.2 0.00 0.00 0.00 81 1013.6
20260506220026 10 226 0.0 3.2 0.00 0.00 0.00 81 1013.7
20260506215504 10 223 0.0 1.6 0.00 0.00 0.00 81 1013.5
20260506215006 10 222 0.0 1.6 0.00 0.00 0.00 81 1013.6
20260506214505 10 233 0.0 1.6 0.00 0.00 0.00 81 1013.5